Fort Atkinson, Wisconsin, United States (53538)
Lat: 42.93N, Lon: 88.84W
Wx Zone: WIZ064
Local Info
Past Weather Observations for Thursday, August 28, 2014

NOTE: This archive is for the closest National Weather Service station to Fort Atkinson. Information may differ from the station used for current weather conditions.

Click here for Long-term Archive

Time Weather Temperature Dewpoint Humidity Pressure Winds Precip Visibility
23:55
Overcast
64°F / 18°C 61°F / 16°C 88% 30.01 in
(1016 mb)
SE 8.1 mph
(SE 13 kph)
- 10SM
23:35
Overcast
64°F / 18°C 59°F / 15°C 83% 30.01 in
(1016 mb)
ESE 6.9 mph
(ESE 11 kph)
- 10SM
23:15
Overcast
64°F / 18°C 59°F / 15°C 83% 30.04 in
(1017 mb)
ESE 5.8 mph
(ESE 9 kph)
- 10SM
22:55
Overcast
64°F / 18°C 59°F / 15°C 83% 30.04 in
(1017 mb)
SE 6.9 mph
(SE 11 kph)
- 10SM
22:35
Overcast
64°F / 18°C 59°F / 15°C 83% 30.04 in
(1017 mb)
ESE 8.1 mph
(ESE 13 kph)
- 10SM
22:15
Overcast
64°F / 18°C 59°F / 15°C 83% 30.04 in
(1017 mb)
SE 5.8 mph
(SE 9 kph)
- 10SM
21:55
Overcast
64°F / 18°C 59°F / 15°C 83% 30.04 in
(1017 mb)
ESE 4.6 mph
(ESE 7 kph)
- 10SM
21:35
Mostly Cloudy
64°F / 18°C 59°F / 15°C 83% 30.04 in
(1017 mb)
SE 5.8 mph
(SE 9 kph)
- 10SM
21:15
Mostly Cloudy
63°F / 17°C 59°F / 15°C 88% 30.04 in
(1017 mb)
ESE 6.9 mph
(ESE 11 kph)
- 10SM
20:55
Partly Cloudy
63°F / 17°C 57°F / 14°C 83% 30.04 in
(1017 mb)
E 3.5 mph
(E 6 kph)
- 10SM
20:35
Partly Cloudy
63°F / 17°C 57°F / 14°C 83% 30.04 in
(1017 mb)
E 4.6 mph
(E 7 kph)
- 10SM
20:15
Partly Cloudy
63°F / 17°C 57°F / 14°C 83% 30.06 in
(1018 mb)
Calm - 10SM
19:55
Clear
63°F / 17°C 57°F / 14°C 83% 30.06 in
(1018 mb)
E 4.6 mph
(E 7 kph)
- 10SM
19:35
Partly Cloudy
63°F / 17°C 57°F / 14°C 83% 30.06 in
(1018 mb)
E 4.6 mph
(E 7 kph)
- 10SM
19:15
Mostly Cloudy
64°F / 18°C 55°F / 13°C 73% 30.06 in
(1018 mb)
E 4.6 mph
(E 7 kph)
- 10SM
18:55
Overcast
64°F / 18°C 55°F / 13°C 73% 30.06 in
(1018 mb)
E 4.6 mph
(E 7 kph)
- 10SM
18:35
Overcast
64°F / 18°C 55°F / 13°C 73% 30.06 in
(1018 mb)
E 3.5 mph
(E 6 kph)
- 10SM
18:15
Overcast
66°F / 19°C 55°F / 13°C 68% 30.06 in
(1018 mb)
E 3.5 mph
(E 6 kph)
- 10SM
17:55
Overcast
66°F / 19°C 55°F / 13°C 68% 30.06 in
(1018 mb)
Calm - 10SM
17:35
Mostly Cloudy
66°F / 19°C 55°F / 13°C 68% 30.06 in
(1018 mb)
ESE 3.5 mph
(ESE 6 kph)
- 10SM
17:15
Mostly Cloudy
66°F / 19°C 55°F / 13°C 68% 30.06 in
(1018 mb)
E 4.6 mph
(E 7 kph)
- 10SM
16:55
Partly Cloudy
68°F / 20°C 55°F / 13°C 64% 30.06 in
(1018 mb)
ESE 9.2 mph
(ESE 15 kph)
- 10SM
16:35
Mostly Cloudy
68°F / 20°C 55°F / 13°C 64% 30.06 in
(1018 mb)
ESE 8.1 mph
(ESE 13 kph)
- 10SM
16:15
Mostly Cloudy
68°F / 20°C 55°F / 13°C 64% 30.06 in
(1018 mb)
ESE 9.2 mph
(ESE 15 kph)
- 10SM
15:55
Partly Cloudy
68°F / 20°C 57°F / 14°C 69% 30.06 in
(1018 mb)
ESE 8.1 mph
(ESE 13 kph)
- 10SM
15:35
Partly Cloudy
70°F / 21°C 57°F / 14°C 64% 30.06 in
(1018 mb)
SE 8.1 mph
(SE 13 kph)
- 10SM
15:15
Partly Cloudy
70°F / 21°C 57°F / 14°C 64% 30.06 in
(1018 mb)
E 9.2 mph
(E 15 kph)
- 10SM
14:55
Clear
70°F / 21°C 59°F / 15°C 69% 30.06 in
(1018 mb)
ESE 9.2 mph
(ESE 15 kph)
- 10SM
14:35
Partly Cloudy
72°F / 22°C 59°F / 15°C 65% 30.09 in
(1019 mb)
SE 10.4 mph
(SE 17 kph)
- 10SM
14:15
Partly Cloudy
72°F / 22°C 59°F / 15°C 65% 30.09 in
(1019 mb)
SE 6.9 mph
(SE 11 kph)
- 10SM
13:55
Partly Cloudy
73°F / 23°C 59°F / 15°C 61% 30.09 in
(1019 mb)
ESE 6.9 mph
(ESE 11 kph)
- 10SM
13:35
Partly Cloudy
73°F / 23°C 59°F / 15°C 61% 30.09 in
(1019 mb)
SE 6.9 mph
(SE 11 kph)
- 10SM
13:15
Partly Cloudy
73°F / 23°C 61°F / 16°C 65% 30.09 in
(1019 mb)
ESE 5.8 mph
(ESE 9 kph)
- 10SM
12:55
Mostly Cloudy
73°F / 23°C 59°F / 15°C 61% 30.12 in
(1020 mb)
SE 6.9 mph
(SE 11 kph)
- 10SM
12:35
Mostly Cloudy
73°F / 23°C 59°F / 15°C 61% 30.12 in
(1020 mb)
SE 5.8 mph
(SE 9 kph)
- 10SM
12:15
Mostly Cloudy
73°F / 23°C 61°F / 16°C 65% 30.12 in
(1020 mb)
E 9.2 mph
(E 15 kph)
- 10SM
11:55
Overcast
75°F / 24°C 61°F / 16°C 61% 30.12 in
(1020 mb)
SE 8.1 mph
(SE 13 kph)
- 10SM
11:35
Mostly Cloudy
72°F / 22°C 61°F / 16°C 69% 30.12 in
(1020 mb)
SE 3.5 mph
(SE 6 kph)
- 10SM
11:15
Partly Cloudy
72°F / 22°C 59°F / 15°C 65% 30.12 in
(1020 mb)
SE 8.1 mph
(SE 13 kph)
- 10SM
10:55
Partly Cloudy
72°F / 22°C 61°F / 16°C 69% 30.12 in
(1020 mb)
E 6.9 mph
(E 11 kph)
- 10SM
10:35
Clear
72°F / 22°C 59°F / 15°C 65% 30.15 in
(1021 mb)
ESE 8.1 mph
(ESE 13 kph)
- 10SM
10:15
Clear
72°F / 22°C 59°F / 15°C 65% 30.15 in
(1021 mb)
SE 9.2 mph
(SE 15 kph)
- 10SM
09:55
Clear
72°F / 22°C 59°F / 15°C 65% 30.15 in
(1021 mb)
SSE 8.1 mph
(SSE 13 kph)
- 10SM
09:35
Clear
70°F / 21°C 59°F / 15°C 69% 30.15 in
(1021 mb)
SSE 3.5 mph
(SSE 6 kph)
- 10SM
09:15
Clear
70°F / 21°C 59°F / 15°C 69% 30.15 in
(1021 mb)
SSE 6.9 mph
(SSE 11 kph)
- 10SM
08:55
Clear
68°F / 20°C 59°F / 15°C 73% 30.15 in
(1021 mb)
SE 8.1 mph
(SE 13 kph)
- 10SM
08:35
Clear
68°F / 20°C 59°F / 15°C 73% 30.15 in
(1021 mb)
SE 5.8 mph
(SE 9 kph)
- 10SM
08:15
Clear
68°F / 20°C 61°F / 16°C 78% 30.15 in
(1021 mb)
SE 8.1 mph
(SE 13 kph)
- 10SM
07:55
Clear
66°F / 19°C 61°F / 16°C 83% 30.15 in
(1021 mb)
SE 5.8 mph
(SE 9 kph)
- 10SM
07:35
Clear
64°F / 18°C 61°F / 16°C 88% 30.15 in
(1021 mb)
SE 5.8 mph
(SE 9 kph)
- 10SM
07:15
Clear
63°F / 17°C 59°F / 15°C 88% 30.15 in
(1021 mb)
SE 5.8 mph
(SE 9 kph)
- 10SM
06:55
Clear
61°F / 16°C 59°F / 15°C 94% 30.15 in
(1021 mb)
ESE 3.5 mph
(ESE 6 kph)
- 10SM
06:35
Clear
59°F / 15°C 59°F / 15°C 100% 30.15 in
(1021 mb)
Calm - 10SM
06:15
Clear
57°F / 14°C 57°F / 14°C 100% 30.15 in
(1021 mb)
Calm - 10SM
05:55
Clear
55°F / 13°C 55°F / 13°C 100% 30.15 in
(1021 mb)
Calm - 7SM
05:35
Obscured
Fog
54°F / 12°C 54°F / 12°C 100% 30.15 in
(1021 mb)
Calm - 1/2SM
05:15
Clear
55°F / 13°C 55°F / 13°C 100% 30.15 in
(1021 mb)
Calm - 10SM
04:55
Clear
55°F / 13°C 55°F / 13°C 100% 30.15 in
(1021 mb)
Calm - 10SM
04:35
Clear
55°F / 13°C 55°F / 13°C 100% 30.15 in
(1021 mb)
Calm - 10SM
04:15
Clear
55°F / 13°C 55°F / 13°C 100% 30.12 in
(1020 mb)
Calm - 10SM
03:55
Clear
55°F / 13°C 55°F / 13°C 100% 30.15 in
(1021 mb)
Calm - 10SM
03:35
Clear
54°F / 12°C 54°F / 12°C 100% 30.15 in
(1021 mb)
Calm - 10SM
03:15
Clear
55°F / 13°C 55°F / 13°C 100% 30.15 in
(1021 mb)
Calm - 7SM
02:55
Clear
55°F / 13°C 55°F / 13°C 100% 30.15 in
(1021 mb)
Calm - 7SM
02:35
Clear
Fog And Mist
55°F / 13°C 55°F / 13°C 100% 30.15 in
(1021 mb)
Calm - 5SM
02:15
Clear
55°F / 13°C 55°F / 13°C 100% 30.15 in
(1021 mb)
Calm - 10SM
01:55
Clear
55°F / 13°C 55°F / 13°C 100% 30.15 in
(1021 mb)
Calm - 7SM
01:35
Clear
57°F / 14°C 57°F / 14°C 100% 30.15 in
(1021 mb)
Calm - 7SM
01:15
Clear
57°F / 14°C 57°F / 14°C 100% 30.15 in
(1021 mb)
Calm - 7SM
00:55
Clear
59°F / 15°C 59°F / 15°C 100% 30.15 in
(1021 mb)
Calm - 10SM
00:35
Clear
59°F / 15°C 59°F / 15°C 100% 30.15 in
(1021 mb)
Calm - 10SM
00:15
Clear
59°F / 15°C 59°F / 15°C 100% 30.15 in
(1021 mb)
Calm - 7SM
Time Weather Temperature Dewpoint Humidity Pressure Winds Precip Visibility


Weather for websites

WeatherForYou.com, LLC is not responsible for any damages or problems caused by this service. Current weather conditions are obtained from the closest station including government and personal stations which may have varying degrees of accuracy. Weather forecasts are derived from the NOAA NDFD. Like all things, this site belongs to Jesus Christ... He just trusts me to maintain it. If you have any questions or comments email webmaster@weatherforyou.com

Copyright © 2014, WeatherForYou.com LLC. All rights reserved.